• In Hungary
  • List of Countries
  • For 7 days
  • Water Temperature
  • Satellite Maps
  • Weather Map
  • News
  • Weather Widgets
  • user-avatar
    Login

    Hourly Weather Kuzino

    Today, 15 August, Wednesday

    Time Temperature Precipitation Wind Pressure Humidity
    00:00 +14°C° 0 mm 1 mps 738 mmHg 79%
    01:00 +14°C° 0 mm 2 mps 738 mmHg 80%
    02:00 +14°C° 0 mm 2 mps 738 mmHg 80%
    03:00 +14°C° 0.7 mm 2 mps 737 mmHg 85%
    04:00 +14°C° 0.7 mm 2 mps 737 mmHg 90%
    05:00 +14°C° 0.7 mm 2 mps 737 mmHg 95%
    06:00 +15°C° 1.5 mm 2 mps 736 mmHg 96%
    07:00 +16°C° 1.5 mm 2 mps 736 mmHg 96%
    08:00 +16°C° 1.5 mm 2 mps 735 mmHg 97%
    09:00 +17°C° 0.7 mm 2 mps 735 mmHg 96%
    10:00 +18°C° 0.7 mm 2 mps 735 mmHg 95%
    11:00 +19°C° 0.7 mm 2 mps 735 mmHg 94%
    12:00 +19°C° 0.2 mm 2 mps 735 mmHg 93%
    13:00 +20°C° 0.2 mm 2 mps 735 mmHg 93%
    14:00 +20°C° 0.2 mm 2 mps 735 mmHg 92%
    15:00 +20°C° 0.8 mm 2 mps 735 mmHg 92%
    16:00 +20°C° 0.8 mm 3 mps 735 mmHg 92%
    17:00 +19°C° 0.8 mm 3 mps 735 mmHg 92%
    18:00 +19°C° 0.3 mm 3 mps 736 mmHg 94%
    19:00 +18°C° 0.3 mm 2 mps 736 mmHg 96%
    20:00 +17°C° 0.3 mm 2 mps 736 mmHg 98%
    21:00 +16°C° 0.1 mm 2 mps 736 mmHg 98%
    22:00 +16°C° 0.1 mm 1 mps 737 mmHg 98%
    23:00 +15°C° 0.1 mm 1 mps 737 mmHg 98%

    Tomorrow, 16 August, Thursday

    Time Temperature Precipitation Wind Pressure Humidity
    00:00 +15°C° 0 mm 1 mps 737 mmHg 98%
    01:00 +15°C° 0 mm 1 mps 738 mmHg 98%
    02:00 +15°C° 0 mm 1 mps 738 mmHg 98%
    03:00 +15°C° 0 mm 1 mps 738 mmHg 98%
    04:00 +15°C° 0 mm 1 mps 739 mmHg 98%
    05:00 +15°C° 0 mm 1 mps 739 mmHg 98%
    06:00 +15°C° 0 mm 1 mps 739 mmHg 97%
    07:00 +16°C° 0 mm 1 mps 740 mmHg 95%
    08:00 +16°C° 0 mm 1 mps 740 mmHg 93%
    09:00 +18°C° 0.1 mm 1 mps 741 mmHg 88%
    10:00 +19°C° 0.1 mm 1 mps 741 mmHg 82%
    11:00 +20°C° 0.1 mm 1 mps 741 mmHg 76%
    12:00 +20°C° 0.1 mm 2 mps 742 mmHg 71%
    13:00 +21°C° 0.1 mm 2 mps 742 mmHg 66%
    14:00 +21°C° 0.1 mm 2 mps 742 mmHg 62%
    15:00 +21°C° 0 mm 2 mps 742 mmHg 62%
    16:00 +21°C° 0 mm 2 mps 742 mmHg 63%
    17:00 +21°C° 0 mm 2 mps 742 mmHg 63%
    18:00 +20°C° 0 mm 1 mps 743 mmHg 69%
    19:00 +18°C° 0 mm 1 mps 743 mmHg 76%
    20:00 +15°C° 0 mm 1 mps 743 mmHg 82%
    21:00 +15°C° 0 mm 1 mps 743 mmHg 84%
    22:00 +14°C° 0 mm 1 mps 744 mmHg 85%
    23:00 +13°C° 0 mm 1 mps 744 mmHg 87%

    Day after tomorrow, 17 August, Friday

    Time Temperature Precipitation Wind Pressure Humidity
    00:00 +13°C° 0 mm 1 mps 744 mmHg 88%
    01:00 +13°C° 0 mm 1 mps 744 mmHg 89%
    02:00 +12°C° 0 mm 1 mps 745 mmHg 90%
    03:00 +12°C° 0 mm 1 mps 745 mmHg 90%
    04:00 +12°C° 0 mm 1 mps 745 mmHg 91%
    05:00 +12°C° 0 mm 1 mps 745 mmHg 91%
    06:00 +14°C° 0 mm 1 mps 746 mmHg 83%
    07:00 +18°C° 0 mm 1 mps 746 mmHg 75%
    08:00 +20°C° 0 mm 1 mps 746 mmHg 67%
    09:00 +21°C° 0 mm 1 mps 746 mmHg 61%
    10:00 +23°C° 0 mm 2 mps 746 mmHg 54%
    11:00 +24°C° 0 mm 2 mps 746 mmHg 48%
    12:00 +24°C° 0 mm 2 mps 746 mmHg 47%
    13:00 +25°C° 0 mm 2 mps 746 mmHg 45%
    14:00 +25°C° 0 mm 2 mps 746 mmHg 44%
    15:00 +25°C° 0 mm 2 mps 745 mmHg 48%
    16:00 +24°C° 0 mm 2 mps 745 mmHg 52%
    17:00 +24°C° 0 mm 1 mps 745 mmHg 56%
    18:00 +22°C° 0 mm 1 mps 745 mmHg 63%
    19:00 +19°C° 0 mm 2 mps 745 mmHg 70%
    20:00 +16°C° 0 mm 2 mps 745 mmHg 77%
    21:00 +16°C° 0 mm 2 mps 745 mmHg 79%
    22:00 +15°C° 0 mm 2 mps 745 mmHg 80%
    23:00 +14°C° 0 mm 2 mps 745 mmHg 82%

    18 August, Saturday

    Time Temperature Precipitation Wind Pressure Humidity
    00:00 +14°C° 0 mm 2 mps 746 mmHg 83%
    01:00 +13°C° 0 mm 2 mps 746 mmHg 84%
    02:00 +13°C° 0 mm 2 mps 746 mmHg 85%
    03:00 +12°C° 0 mm 2 mps 746 mmHg 85%
    04:00 +12°C° 0 mm 2 mps 746 mmHg 85%
    05:00 +12°C° 0 mm 2 mps 746 mmHg 85%
    06:00 +14°C° 0 mm 2 mps 746 mmHg 78%
    07:00 +16°C° 0 mm 2 mps 746 mmHg 72%
    08:00 +18°C° 0 mm 2 mps 746 mmHg 65%
    09:00 +20°C° 0 mm 2 mps 746 mmHg 59%
    10:00 +23°C° 0 mm 2 mps 746 mmHg 53%
    11:00 +24°C° 0 mm 3 mps 746 mmHg 47%
    12:00 +25°C° 0 mm 3 mps 746 mmHg 46%
    13:00 +25°C° 0 mm 3 mps 745 mmHg 44%
    14:00 +26°C° 0 mm 3 mps 745 mmHg 43%
    15:00 +25°C° 0 mm 2 mps 745 mmHg 47%
    16:00 +25°C° 0 mm 2 mps 744 mmHg 52%
    17:00 +25°C° 0 mm 2 mps 744 mmHg 56%
    18:00 +23°C° 0 mm 2 mps 744 mmHg 64%
    19:00 +19°C° 0 mm 2 mps 744 mmHg 72%
    20:00 +17°C° 0 mm 2 mps 744 mmHg 80%
    21:00 +17°C° 0 mm 2 mps 744 mmHg 81%
    22:00 +16°C° 0 mm 2 mps 744 mmHg 82%
    23:00 +16°C° 0 mm 2 mps 744 mmHg 83%

    19 August, Sunday

    Time Temperature Precipitation Wind Pressure Humidity
    00:00 +16°C° 0 mm 2 mps 744 mmHg 84%
    01:00 +15°C° 0 mm 2 mps 744 mmHg 85%
    02:00 +15°C° 0 mm 2 mps 744 mmHg 86%
    03:00 +14°C° 0 mm 3 mps 744 mmHg 88%
    04:00 +14°C° 0 mm 3 mps 743 mmHg 89%
    05:00 +14°C° 0 mm 3 mps 743 mmHg 90%
    06:00 +17°C° 0 mm 3 mps 743 mmHg 84%
    07:00 +18°C° 0 mm 3 mps 743 mmHg 78%
    08:00 +20°C° 0 mm 3 mps 743 mmHg 71%
    09:00 +22°C° 0 mm 4 mps 743 mmHg 65%
    10:00 +23°C° 0 mm 4 mps 742 mmHg 60%
    11:00 +26°C° 0 mm 4 mps 742 mmHg 54%
    12:00 +26°C° 0.2 mm 4 mps 742 mmHg 54%
    13:00 +26°C° 0.2 mm 4 mps 741 mmHg 55%
    14:00 +26°C° 0.2 mm 4 mps 741 mmHg 55%
    15:00 +25°C° 0.8 mm 4 mps 741 mmHg 65%
    16:00 +24°C° 0.8 mm 3 mps 740 mmHg 75%
    17:00 +22°C° 0.8 mm 3 mps 740 mmHg 85%
    18:00 +20°C° 0.5 mm 2 mps 740 mmHg 88%
    19:00 +19°C° 0.5 mm 2 mps 740 mmHg 92%
    20:00 +17°C° 0.5 mm 2 mps 740 mmHg 95%
    21:00 +17°C° 0.1 mm 2 mps 740 mmHg 96%
    22:00 +16°C° 0.1 mm 2 mps 740 mmHg 97%
    23:00 +15°C° 0.1 mm 2 mps 740 mmHg 97%

    20 August, Monday

    Time Temperature Precipitation Wind Pressure Humidity
    00:00 +15°C° 0.1 mm 2 mps 740 mmHg 97%
    01:00 +15°C° 0.1 mm 2 mps 740 mmHg 98%
    02:00 +15°C° 0.1 mm 2 mps 740 mmHg 98%
    03:00 +15°C° 0.1 mm 2 mps 741 mmHg 98%
    04:00 +15°C° 0.1 mm 2 mps 741 mmHg 98%
    05:00 +14°C° 0.1 mm 2 mps 741 mmHg 98%
    06:00 +15°C° 0 mm 2 mps 741 mmHg 95%
    07:00 +15°C° 0 mm 2 mps 741 mmHg 93%
    08:00 +16°C° 0 mm 2 mps 742 mmHg 91%
    09:00 +17°C° 0 mm 2 mps 742 mmHg 81%
    10:00 +18°C° 0 mm 2 mps 742 mmHg 71%
    11:00 +20°C° 0 mm 2 mps 742 mmHg 61%
    12:00 +20°C° 0 mm 2 mps 742 mmHg 57%
    13:00 +21°C° 0 mm 2 mps 742 mmHg 53%
    14:00 +21°C° 0 mm 2 mps 742 mmHg 49%
    15:00 +21°C° 0 mm 2 mps 742 mmHg 52%
    16:00 +20°C° 0 mm 2 mps 742 mmHg 55%
    17:00 +20°C° 0 mm 2 mps 742 mmHg 58%
    18:00 +19°C° 0 mm 1 mps 741 mmHg 65%
    19:00 +16°C° 0 mm 1 mps 741 mmHg 72%
    20:00 +14°C° 0 mm 1 mps 741 mmHg 79%
    21:00 +13°C° 0 mm 1 mps 741 mmHg 81%
    22:00 +13°C° 0 mm 1 mps 741 mmHg 82%
    23:00 +12°C° 0 mm 1 mps 741 mmHg 84%
    Show more